Simultaneous Nadir Overpasses (SNOs) Predictions

Prediction of SNOs between METOP-A and NOAA-19 Satellite Orbit:

Table of predicted SNOs for the next 14.0 days since TLE Epoch: 3/6/2020
Index Date (METOP-A) Time (METOP-A) Lat,Lon (METOP-A) SZA (METOP-A ) Date (NOAA-19) Time (NOAA-19) Lat,Lon (NOAA-19) SZA (NOAA-19 ) Distance(km) Time Diff (sec)
1 03/17/2020 04:46:19 -80.37, -58.09 98.33 03/17/2020 04:45:04 -80.37, -57.96 98.34 2.36 75
2 03/17/2020 05:36:59 80.38, 109.40 81.68 03/17/2020 05:35:59 80.36, 109.42 81.65 2.24 60
3 03/17/2020 06:27:41 -80.36, -83.55 98.37 03/17/2020 06:27:05 -80.37, -83.58 98.36 1.96 36
4 03/17/2020 07:18:21 80.37, 83.93 81.64 03/17/2020 07:18:00 80.37, 83.81 81.63 2.32 21
5 03/17/2020 08:09:02 -80.37,-108.71 98.38 03/17/2020 08:09:05 -80.36,-108.86 98.39 3.05 3
6 03/17/2020 08:59:43 80.36, 58.46 81.59 03/17/2020 09:00:00 80.36, 58.53 81.60 1.29 17
7 03/17/2020 09:50:24 -80.36,-134.17 98.42 03/17/2020 09:51:05 -80.35,-134.14 98.43 1.53 41
8 03/17/2020 10:41:05 80.35, 33.00 81.55 03/17/2020 10:42:01 80.36, 32.92 81.57 2.16 56




NCC Satellite Simultaneous Nadir Overpasses (SNOs) Prediction Service
